[[[{"header":{"parameterUnit":"kt","parameterCategory":2,"dx":1,"dy":1,"la1":30.253999710083008,"la2":30.299108505249023,"lo1":-89.0895004272461,"lo2":-89.04439544677734,"nx":28,"ny":28,"refTime":"2022-10-09T21:00:00:Z","depth":0,"parameterNumber":1,"parameterNumberName":"U-component_of_WINDS"},"data":[-6.8742,-6.8837,-6.8799,-6.8892,-6.8874,-6.8931,-6.894,-6.8948,-6.8945,-6.9012,-6.9044,-6.9017,-6.9001,-6.9032,-6.9067,-6.9054,-6.9073,-6.9136,-6.9111,-6.8859,-6.8821,-6.8786,-6.876,-6.914,-6.9141,-6.9378,-6.938,-6.9382,-6.8571,-6.8553,-6.8589,-6.8599,-6.8631,-6.8548,-6.855,-6.8582,-6.8636,-6.8633,-6.866,-6.8716,-6.8756,-6.8716,-6.8748,-6.8796,-6.8759,-6.8807,-6.8804,-6.8803,-6.8532,-6.8505,-6.8837,-6.8837,-6.8837,-6.8837,-6.8837,-6.8837,-6.8248,-6.8305,-6.8287,-6.8325,-6.8319,-6.8326,-6.8375,-6.8338,-6.8373,-6.8399,-6.8345,-6.8406,-6.8395,-6.8413,-6.8409,-6.8458,-6.8396,-6.8438,-6.8448,-6.8461,-6.8481,-6.8151,-6.8461,-6.846,-6.8459,-6.8458,-6.8457,0,-6.7999,-6.7963,-6.7992,-6.8012,-6.8037,-6.8048,-6.8052,-6.8081,-6.7988,-6.8022,-6.8068,-6.8087,-6.8128,-6.8168,-6.8188,-6.8174,-6.8091,-6.8077,-6.8106,-6.8134,-6.8159,-6.815,-6.7713,-6.8068,-6.8064,-6.8062,-6.806,-6.8059,-6.7673,-6.7742,-6.7701,-6.7728,-6.7718,-6.7762,-6.7781,-6.7692,-6.7716,-6.7708,-6.7764,-6.7801,-6.7826,-6.7907,-6.7862,-6.7892,-6.7852,-6.7993,-6.7856,-6.7882,-6.7858,-6.7855,-6.7864,-6.8021,-6.8026,-6.803,-6.8033,0,-6.7494,-6.7425,-6.7519,-6.7469,-6.7459,-6.7538,-6.7496,-6.755,-6.7505,-6.7574,-6.7584,-6.7515,-6.7561,-6.7491,-6.7529,-6.7492,-6.763,-6.7588,-6.7634,-6.7623,-6.7744,-6.7735,-6.8142,-6.8192,-6.7794,-6.7798,-6.7801,0,-6.7188,-6.7282,-6.7174,-6.7232,-6.7335,-6.724,-6.7346,-6.7316,-6.73,-6.7352,-6.7243,-6.7296,-6.7196,-6.724,-6.7185,-6.7283,-6.7289,-6.7267,-6.7252,-6.7278,-6.7281,-6.729,-6.7273,-6.7209,-6.7207,-6.7205,-6.7204,0,-6.6916,-6.6965,-6.7058,-6.7058,-6.7012,-6.7059,-6.7043,-6.7021,-6.704,-6.7052,-6.7063,-6.7085,-6.7097,-6.7118,-6.7045,-6.6956,-6.7163,-6.7024,-6.7141,-6.7143,-6.719,-6.7188,-6.7566,-6.7201,-6.72,-6.72,-6.7199,0,-6.6657,-6.6667,-6.6811,-6.677,-6.6787,-6.6848,-6.6861,-6.6896,-6.6882,-6.6848,-6.6857,-6.6775,-6.6851,-6.672,-6.6825,-6.6729,-6.675,-6.6734,-6.6741,-6.6743,-6.6598,-6.6824,-6.7188,-6.7225,-6.6748,-6.6744,-6.6741,0,-6.6367,-6.649,-6.6407,-6.6546,-6.6592,-6.6464,-6.6531,-6.6519,-6.648,-6.6517,-6.6473,-6.6515,-6.6401,-6.6404,-6.6466,-6.6424,-6.6549,-6.6405,-6.6465,-6.6468,-6.6475,-6.6809,-6.6881,-6.7116,-6.6692,-6.6697,-6.6701,0,-6.6131,-6.6068,-6.6098,-6.6093,-6.6058,-6.6095,-6.6172,-6.6189,-6.6218,-6.6215,-6.6278,-6.6333,-6.6251,-6.6255,-6.6189,-6.6257,-6.6462,-6.6158,-6.6156,-6.6218,-6.6659,-6.6728,-6.6768,-6.6403,-6.6409,-6.6414,-6.6661,0,-6.5762,-6.5811,-6.5888,-6.5877,-6.5894,-6.5974,-6.5891,-6.592,-6.5853,-6.5807,-6.5897,-6.5865,-6.5885,-6.5908,-6.5842,-6.6019,-6.5978,-6.5888,-6.5754,-6.5973,-6.6053,-6.6086,-6.5643,-6.5638,-6.5634,-6.5631,0,0,-6.5503,-6.5569,-6.5471,-6.5537,-6.5545,-6.5406,-6.55,-6.5492,-6.5477,-6.5487,-6.5412,-6.5485,-6.5462,-6.558,-6.5641,-6.5648,-6.5673,-6.5597,-6.5869,-6.5896,-6.592,-6.6007,-6.6042,-6.5625,-6.5623,-6.5622,-6.5621,0,-6.5349,-6.5322,-6.5413,-6.5399,-6.5373,-6.5318,-6.5341,-6.5291,-6.5265,-6.5349,-6.5235,-6.5278,-6.5336,-6.5328,-6.5332,-6.5582,-6.5493,-6.5593,-6.5756,-6.5834,-6.5866,-6.5894,-6.5986,-6.602,-6.5612,-6.5612,-6.5613,0,-6.5103,-6.5064,-6.5097,-6.5103,-6.5084,-6.5134,-6.4973,-6.503,-6.5067,-6.4911,-6.4996,-6.4967,-6.4948,-6.5068,-6.5118,-6.5051,-6.5336,-6.5228,-6.525,-6.5254,-6.5325,-6.5363,-6.5398,-6.4948,-6.4946,-6.4944,0,0,-6.4982,-6.5024,-6.4952,-6.5063,-6.5059,-6.4977,-6.4993,-6.4926,-6.4908,-6.4902,-6.4861,-6.485,-6.4883,-6.4907,-6.4933,-6.5075,-6.5065,-6.515,-6.5181,-6.5207,-6.5226,-6.5304,-6.5342,-6.4937,-6.4937,-6.4936,0,0,-6.4924,-6.4843,-6.4776,-6.4893,-6.488,-6.4817,-6.4889,-6.4806,-6.482,-6.4801,-6.4691,-6.4683,-6.4793,-6.4768,-6.4679,-6.4884,-6.4753,-6.4773,-6.4896,-6.4934,-6.4965,-6.4969,-6.4509,0,0,0,0,0,-6.4721,-6.4853,-6.4793,-6.48,-6.4804,-6.485,-6.485,-6.4761,-6.4671,-6.4731,-6.4684,-6.4586,-6.4698,-6.4616,-6.4626,-6.4726,-6.4841,-6.4858,-6.4874,-6.5066,-6.5107,-6.5141,0,0,0,0,0,0,-6.4723,-6.4731,-6.4789,-6.4733,-6.4733,-6.4844,-6.4672,-6.4652,-6.4662,-6.4642,-6.4598,-6.4584,-6.4511,-6.4605,-6.4615,-6.4713,-6.4505,-6.4848,-6.4862,-6.4875,-6.508,-6.5113,-6.5142,0,0,0,0,0,-6.4724,-6.473,-6.4759,-6.473,-6.473,-6.4643,-6.4666,-6.4648,-6.4654,-6.458,-6.4563,-6.4586,-6.4516,-6.4518,-6.461,-6.471,-6.4497,-6.4502,-6.4857,-6.4868,-6.4879,-6.5096,0,0,0,0,0,0,-6.4724,-6.4714,-6.4757,-6.4754,-6.4672,-6.4635,-6.4626,-6.4645,-6.4589,-6.4574,-6.4562,-6.4547,-6.4521,-6.4522,-6.4524,-6.4715,-6.4491,-6.4495,-6.4498,-6.4866,-6.4875,-6.4882,0,0,0,0,0,0,-6.471,-6.4713,-6.4755,-6.4687,-6.4675,-6.4629,-6.4621,-6.4685,-6.4591,-6.4574,-6.4559,-6.4556,-6.4518,-6.4525,-6.4527,-6.4631,-6.4487,-6.4491,-6.4493,-6.4495,-6.4873,-6.488,0,0,0,0,0,0,-6.4709,-6.4711,-6.4687,-6.4678,-6.4667,-6.4624,-6.4684,-6.4694,-6.453,-6.4579,-6.4513,-6.4505,-6.4525,-6.4524,-6.4529,-6.4634,-6.4632,-6.4487,-6.4489,-6.4491,-6.4493,0,0,0,0,0,0,0,-6.4709,-6.4716,-6.4776,-6.467,-6.466,-6.4724,-6.4724,-6.4723,-6.4528,-6.4521,-6.4515,-6.4508,-6.4464,-6.4468,-6.4473,-6.4636,0,0,-6.4486,-6.4488,0,0,0,0,0,0,0,0,-6.4713,-6.4715,-6.4776,-6.4775,-6.4774,-6.4724,-6.4724,-6.4723,-6.4527,-6.4521,-6.4516,-6.4511,-6.4465,-6.4469,-6.4472,0,0,0,0,0,0,0,0,0,0,0,0,0,0,0,-6.4776,-6.4775,0,-6.4724,-6.4724,-6.4723,-6.4526,-6.4522,-6.4517,-6.4513,-6.4466,-6.4469,-6.4472,0,0,0,0,0,0,0,0,0,0,0,0,0,0,0,0,0,0,0,0,0,0,0,0,0,0,0,0,0,0,0,0,0,0,0,0,0,0,0,0,0,0,0,0,0,0,0,0,0,0,0,0,0,0,0,0,0,0,0,0,0,0,0,0,0,0,0,0,0]}],[{"header":{"parameterUnit":"kt","parameterCategory":2,"dx":1,"dy":1,"la1":30.253999710083008,"la2":30.299108505249023,"lo1":-89.0895004272461,"lo2":-89.04439544677734,"nx":28,"ny":28,"refTime":"2022-10-09T21:00:00:Z","depth":0,"parameterNumber":2,"parameterNumberName":"V-component_of_WINDS"},"data":[0.9656,0.9573,0.9595,0.951,0.9516,0.946,0.9448,0.9433,0.9427,0.9363,0.9329,0.9342,0.9343,0.9307,0.927,0.9276,0.9257,0.9213,0.9226,0.9411,0.9438,0.9464,0.9484,0.9209,0.9209,0.903,0.9028,0.9027,0.9789,0.9794,0.9756,0.9734,0.9701,0.9759,0.9745,0.9713,0.9662,0.9654,0.9623,0.9567,0.9526,0.9542,0.9505,0.9465,0.9487,0.9452,0.9453,0.9452,0.9652,0.9674,0.9434,0.9435,0.9435,0.9435,0.9435,0.9435,1.0037,0.9987,0.9987,0.9946,0.9941,0.9926,0.9881,0.9899,0.9861,0.9827,0.986,0.9802,0.9797,0.9763,0.9756,0.971,0.9752,0.9719,0.971,0.97,0.9685,0.9935,0.9705,0.9706,0.9707,0.9707,0.9708,0,1.0225,1.0247,1.0213,1.0184,1.0156,1.0136,1.0121,1.0094,1.0147,1.0113,1.0065,1.0041,0.9993,0.9949,0.992,0.992,0.9971,0.998,0.9957,0.9937,0.9924,0.9926,1.0247,0.9985,0.9988,0.999,0.9991,0.9992,1.0473,1.0413,1.0424,1.0397,1.0395,1.035,1.0327,1.0379,1.0352,1.034,1.0292,1.0251,1.0219,1.0138,1.0156,1.0119,1.0143,1.004,1.0137,1.0122,1.0136,1.0138,1.013,1.0018,1.0015,1.0012,1.001,0,1.061,1.0648,1.0562,1.0579,1.0581,1.0514,1.0528,1.048,1.0502,1.0438,1.0426,1.0459,1.0411,1.0447,1.0398,1.0418,1.0304,1.0331,1.0306,1.0311,1.022,1.0226,0.9925,0.9887,1.0177,1.0174,1.0172,0,1.0835,1.0754,1.0814,1.0762,1.0673,1.0728,1.0638,1.0648,1.0646,1.0596,1.0664,1.0615,1.0669,1.0625,1.0654,1.0568,1.056,1.0568,1.0575,1.0559,1.0557,1.0541,1.0552,1.0601,1.0602,1.0604,1.0605,0,1.1042,1.0981,1.0897,1.0889,1.0898,1.0857,1.0858,1.0857,1.0833,1.0809,1.0794,1.0762,1.0743,1.0716,1.0752,1.0817,1.065,1.0746,1.0657,1.0656,1.0615,1.0616,1.0345,1.0607,1.0607,1.0608,1.0608,0,1.1228,1.1205,1.1079,1.1088,1.1069,1.1014,1.0987,1.0948,1.0941,1.0957,1.0938,1.0986,1.0916,1.1008,1.0912,1.0985,1.0962,1.0965,1.0959,1.0951,1.1051,1.0888,1.063,1.0602,1.0949,1.0952,1.0954,0,1.1453,1.1337,1.1383,1.1262,1.1213,1.1292,1.1232,1.1224,1.124,1.1199,1.1217,1.1169,1.1246,1.1236,1.1184,1.1198,1.1104,1.1213,1.1147,1.1144,1.1143,1.0907,1.0857,1.0684,1.0991,1.0987,1.0985,0,1.1631,1.1645,1.162,1.1612,1.1613,1.1572,1.1503,1.147,1.144,1.1425,1.1366,1.1302,1.1356,1.1338,1.1374,1.1317,1.1169,1.1382,1.1383,1.1339,1.1014,1.0967,1.0938,1.1205,1.1201,1.1197,1.1014,0,1.1897,1.1844,1.1781,1.1762,1.1737,1.1664,1.1704,1.1672,1.171,1.1728,1.1644,1.1646,1.1609,1.1587,1.1622,1.1484,1.1512,1.157,1.1658,1.1505,1.1445,1.1421,1.1744,1.1747,1.1749,1.1751,0,0,1.21,1.2026,1.2079,1.2015,1.1997,1.208,1.1998,1.199,1.197,1.1954,1.2006,1.1914,1.1912,1.1805,1.1761,1.1747,1.1724,1.1776,1.1578,1.1559,1.1541,1.1476,1.1451,1.1756,1.1756,1.1757,1.1758,0,1.2205,1.2207,1.2127,1.2122,1.2115,1.214,1.212,1.2128,1.2135,1.2055,1.2121,1.2075,1.2001,1.1989,1.1974,1.1792,1.1842,1.1778,1.1666,1.1601,1.1579,1.1559,1.149,1.1466,1.1764,1.1764,1.1763,0,1.2385,1.2392,1.2359,1.2324,1.232,1.2267,1.2372,1.2313,1.2274,1.2364,1.2281,1.2287,1.2276,1.2171,1.2126,1.217,1.1946,1.2025,1.2011,1.2005,1.1944,1.1917,1.1892,1.2211,1.2212,1.2213,0,0,1.2469,1.2422,1.2445,1.2349,1.2342,1.2377,1.2353,1.2388,1.2378,1.2373,1.2381,1.2368,1.2325,1.2295,1.2257,1.2137,1.2137,1.2078,1.2057,1.204,1.2024,1.1959,1.1932,1.2219,1.2219,1.2219,0,0,1.2509,1.2532,1.2572,1.2467,1.2457,1.2471,1.241,1.2458,1.2428,1.244,1.2494,1.2492,1.2395,1.2397,1.2464,1.2288,1.2376,1.2361,1.229,1.2264,1.2243,1.2242,1.2568,0,0,0,0,0,1.2636,1.253,1.2566,1.2554,1.2509,1.2451,1.2446,1.2488,1.255,1.25,1.2515,1.2572,1.2444,1.2505,1.2491,1.2415,1.2287,1.2275,1.2263,1.2144,1.2116,1.2093,0,0,0,0,0,0,1.2632,1.2617,1.2569,1.2578,1.2569,1.2456,1.2568,1.2577,1.2556,1.2568,1.2567,1.2572,1.2605,1.2515,1.2502,1.2428,1.2572,1.2282,1.2272,1.2263,1.2134,1.2112,1.2092,0,0,0,0,0,1.2628,1.2617,1.2534,1.258,1.2571,1.2603,1.2573,1.2581,1.2565,1.2587,1.2593,1.2599,1.2602,1.2594,1.2507,1.2433,1.2582,1.2577,1.2275,1.2267,1.226,1.2123,0,0,0,0,0,0,1.2626,1.2623,1.2533,1.2532,1.2623,1.2611,1.261,1.2584,1.2586,1.2591,1.2622,1.2632,1.2599,1.2593,1.2586,1.2432,1.2589,1.2584,1.2581,1.2269,1.2263,1.2257,0,0,0,0,0,0,1.263,1.2622,1.2533,1.2585,1.2591,1.2617,1.2616,1.2549,1.2585,1.2621,1.263,1.2626,1.2608,1.2592,1.2587,1.2479,1.2595,1.259,1.2587,1.2585,1.2264,1.2259,0,0,0,0,0,0,1.2627,1.262,1.2586,1.259,1.2595,1.2586,1.2558,1.2508,1.2632,1.262,1.2644,1.265,1.2604,1.2601,1.2587,1.2481,1.248,1.2595,1.2591,1.2589,1.2588,0,0,0,0,0,0,0,1.2625,1.2661,1.254,1.2594,1.2598,1.2522,1.2522,1.2522,1.2634,1.2638,1.2643,1.2648,1.2623,1.2617,1.2612,1.2482,0,0,1.2595,1.2593,0,0,0,0,0,0,0,0,1.2665,1.2662,1.254,1.2539,1.2539,1.2522,1.2522,1.2522,1.2634,1.2638,1.2642,1.2646,1.2621,1.2617,1.2613,0,0,0,0,0,0,0,0,0,0,0,0,0,0,0,1.254,1.2539,0,1.2522,1.2522,1.2522,1.2635,1.2638,1.2641,1.2644,1.262,1.2616,1.2613,0,0,0,0,0,0,0,0,0,0,0,0,0,0,0,0,0,0,0,0,0,0,0,0,0,0,0,0,0,0,0,0,0,0,0,0,0,0,0,0,0,0,0,0,0,0,0,0,0,0,0,0,0,0,0,0,0,0,0,0,0,0,0,0,0,0,0,0,0]}]]]